Total_Precipitation_Accumulation
-0.01 -0.01 -0.01 -0.00 -0.01 -0.01 -0.01 -0.01 -0.01 -0.01 -0.02 -0.17 -0.19 -0.19 -0.09 -0.09 -0.09 -0.29 -0.39 -0.35 -0.35 -0.14 -0.48 -0.53 -0.23 -0.23 -0.20 -0.17 -0.12 -0.12 -0.36 -0.38 -0.51 -0.51 -0.42 -0.37 -0.37 -0.30 -0.16 0.10 0.10 0.08 0.13 0.34 0.23 0.23 0.31 0.34 0.21 0.21 0.07 0.03 0.00 0.00 0.00 0.00 0.00 0.00 0.00 0.00 0.00 0.00 0.00 0.00 0.00 0.00 0.00 0.01 -0.04 -0.04 -0.01 0.00 0.00 0.00 0.00 0.00 0.00 0.00 0.00 0.00 0.00 -0.00 0.01 0.01 0.02 0.02 0.01 0.00 0.00 0.00 0.05 0.09 0.04 0.04 0.00 0.00 0.00 0.00 0.00 0.00 0.00 0.00 0.00
-0.01 -0.00 -0.00 -0.00 -0.01 -0.01 -0.01 -0.01 -0.01 -0.01 -0.02 -0.05 -0.04 -0.04 -0.12 -0.12 -0.12 -0.11 -0.05 -0.40 -0.40 -0.30 -0.32 -0.34 -0.33 -0.33 -0.34 -0.14 -0.30 -0.30 -0.35 -0.50 -0.45 -0.45 -0.41 -0.33 -0.33 -0.25 -0.18 -0.03 -0.03 0.04 0.31 0.38 0.46 0.46 0.48 0.37 0.22 0.22 0.09 0.06 0.00 0.00 0.00 0.00 0.00 0.00 0.00 0.00 0.00 0.00 0.00 0.00 0.00 0.00 0.00 0.00 -0.02 -0.02 -0.01 0.00 -0.00 -0.00 0.00 0.00 0.00 0.00 0.00 0.00 0.00 0.00 0.00 0.01 0.02 0.02 0.01 0.00 0.00 0.00 0.03 0.07 0.03 0.03 0.00 0.00 0.00 0.00 0.00 0.00 0.00 0.00 0.00
-0.00 -0.00 -0.00 -0.00 -0.01 -0.01 -0.02 -0.02 -0.02 -0.02 -0.02 -0.03 -0.06 -0.06 -0.05 -0.06 -0.06 -0.14 -0.09 -0.15 -0.15 -0.36 -0.46 -0.41 -0.45 -0.45 -0.44 -0.40 -0.45 -0.45 -0.37 -0.40 -0.42 -0.42 -0.35 -0.30 -0.30 -0.17 0.00 0.18 0.18 0.20 0.33 0.18 0.35 0.35 0.40 0.42 0.20 0.20 0.17 0.07 0.04 0.04 0.00 0.00 0.00 0.00 0.00 0.00 0.00 0.00 0.00 0.00 0.00 0.00 0.00 0.00 -0.00 -0.00 -0.00 0.00 0.00 0.00 0.00 0.00 0.00 0.00 0.00 0.00 0.00 0.00 0.00 -0.00 0.03 0.03 0.03 0.01 0.01 0.01 0.00 0.07 0.05 0.05 0.00 0.00 0.00 0.00 0.00 0.00 0.00 0.00 0.00
-0.00 -0.00 -0.00 -0.01 -0.03 -0.03 -0.05 -0.04 -0.04 -0.04 -0.04 -0.06 -0.04 -0.04 -0.04 -0.05 -0.05 -0.06 -0.04 -0.04 -0.04 -0.14 -0.30 -0.52 -0.55 -0.55 -0.45 -0.46 -0.43 -0.43 -0.42 -0.37 -0.36 -0.36 -0.33 -0.32 -0.32 -0.01 0.15 0.22 0.22 0.22 0.19 0.19 0.25 0.25 0.26 0.37 0.19 0.19 0.20 0.13 0.10 0.10 0.01 0.02 0.02 0.01 0.00 0.00 0.00 0.00 0.00 0.00 0.00 0.00 0.00 0.00 0.00 0.00 0.00 0.06 0.00 0.00 0.00 0.00 0.00 0.00 0.00 0.00 0.00 0.00 0.00 -0.00 0.02 0.02 0.02 0.01 0.01 0.01 0.00 0.06 0.05 0.05 0.01 0.00 0.00 0.00 0.00 0.00 0.00 0.00 0.00
0.00 -0.00 -0.00 -0.00 -0.03 -0.03 -0.05 -0.08 -0.08 -0.08 -0.05 -0.06 -0.05 -0.05 -0.04 -0.03 -0.03 -0.06 -0.06 -0.06 -0.06 -0.11 -0.15 -0.26 -0.31 -0.31 -0.39 -0.50 -0.30 -0.30 -0.34 -0.32 -0.38 -0.38 -0.41 -0.34 -0.34 -0.03 0.19 0.21 0.21 0.19 0.22 0.31 0.30 0.30 0.16 0.26 0.22 0.22 0.31 0.30 0.17 0.17 0.10 0.05 0.05 0.04 0.00 0.00 0.00 0.00 0.00 0.00 0.02 0.02 0.00 0.02 0.01 0.01 0.20 0.19 0.16 0.16 0.00 -0.00 -0.00 0.00 0.00 0.00 0.00 0.00 0.00 0.01 0.01 0.01 0.02 0.00 0.01 0.01 0.00 0.00 0.05 0.05 0.01 0.00 0.00 0.00 0.00 0.00 0.00 0.00 0.00
0.00 0.00 0.00 0.00 -0.01 -0.01 -0.02 -0.06 -0.05 -0.05 -0.04 -0.06 -0.07 -0.07 -0.04 -0.02 -0.02 -0.03 -0.03 -0.04 -0.04 -0.13 -0.14 -0.26 -0.29 -0.29 -0.41 -0.52 -0.51 -0.51 -0.21 -0.16 -0.32 -0.32 -0.30 0.04 0.04 0.19 0.20 0.21 0.21 0.16 0.15 0.02 0.13 0.13 0.17 0.29 0.29 0.29 0.27 0.33 0.27 0.27 0.15 0.07 0.07 0.02 0.01 0.00 0.00 0.00 0.02 0.02 0.01 0.01 0.01 0.01 0.00 0.00 0.03 0.19 0.21 0.21 0.00 -0.00 -0.00 -0.00 0.00 0.00 0.00 0.00 0.00 0.00 0.01 0.01 0.01 0.00 0.00 0.00 0.00 0.00 0.01 0.01 0.02 0.01 0.01 0.00 0.00 0.00 0.00 0.00 0.00
0.00 0.00 0.00 0.00 -0.00 -0.00 -0.01 -0.09 -0.11 -0.11 -0.04 -0.08 -0.06 -0.06 -0.04 -0.02 -0.02 -0.01 -0.02 -0.02 -0.02 -0.08 -0.16 -0.19 -0.29 -0.29 -0.41 -0.61 -0.53 -0.53 -0.40 -0.32 -0.13 -0.13 -0.07 0.20 0.20 0.20 0.29 0.25 0.25 0.18 0.06 0.07 0.14 0.14 0.15 0.33 0.32 0.32 0.19 0.17 0.17 0.17 0.20 0.13 0.13 0.13 0.07 0.00 0.00 0.03 0.03 0.04 0.04 0.04 0.02 0.01 0.00 0.00 0.00 0.02 0.20 0.20 0.18 0.12 0.12 0.03 0.00 0.00 0.00 0.00 0.00 0.00 0.01 0.01 0.02 0.01 0.01 0.01 0.01 0.00 0.00 0.00 0.04 0.01 0.01 0.00 0.00 0.00 0.00 0.00 0.00
0.00 0.00 0.00 0.00 -0.00 -0.00 -0.00 -0.03 -0.07 -0.07 -0.04 -0.05 -0.05 -0.05 -0.04 -0.02 -0.02 -0.02 -0.02 -0.04 -0.04 -0.04 -0.10 -0.16 -0.35 -0.35 -0.53 -0.61 -0.57 -0.57 -0.50 -0.45 -0.10 -0.10 0.04 0.04 0.04 0.28 0.29 0.23 0.23 0.23 0.12 0.18 0.13 0.13 0.21 0.29 0.33 0.33 0.24 0.18 0.13 0.13 0.07 0.05 0.05 0.13 0.16 0.13 0.13 0.01 0.02 0.06 0.05 0.05 0.03 0.03 0.01 0.01 0.00 0.00 0.11 0.11 0.17 0.17 0.17 0.09 0.05 0.02 0.02 0.00 0.00 0.00 0.00 0.00 0.03 0.02 0.01 0.01 0.01 0.00 0.00 0.00 0.02 0.01 0.01 0.00 0.00 0.00 0.00 0.00 0.00
0.00 0.00 0.00 0.00 -0.00 -0.00 -0.00 -0.00 -0.00 -0.00 -0.05 -0.03 -0.05 -0.05 -0.04 -0.03 -0.03 -0.03 -0.02 -0.07 -0.07 -0.09 -0.14 -0.22 -0.31 -0.31 -0.28 -0.54 -0.54 -0.54 -0.50 -0.46 -0.39 -0.39 -0.15 0.04 0.04 0.14 0.19 0.32 0.32 0.36 0.33 0.34 0.41 0.41 0.41 0.44 0.31 0.31 0.22 0.19 0.15 0.15 0.12 0.07 0.07 0.04 0.08 0.11 0.11 0.00 0.00 0.02 0.04 0.04 0.00 0.01 0.01 0.01 0.00 0.00 0.02 0.02 0.14 0.07 0.07 0.10 0.06 0.03 0.03 0.00 0.00 0.00 0.00 0.00 0.01 0.02 0.02 0.02 0.02 0.01 0.00 0.00 0.00 0.00 0.00 0.00 0.00 0.00 0.00 0.00 0.00
0.00 0.00 0.00 0.00 0.00 0.00 -0.00 -0.00 -0.00 -0.00 -0.00 -0.01 -0.05 -0.05 -0.08 -0.05 -0.05 -0.02 -0.02 -0.05 -0.05 -0.10 -0.18 -0.24 -0.26 -0.26 -0.39 -0.40 -0.44 -0.44 -0.45 -0.46 -0.45 -0.45 -0.11 0.02 0.02 0.08 0.15 0.18 0.18 0.29 0.19 0.23 0.46 0.46 0.63 0.69 0.59 0.59 0.18 0.20 0.15 0.15 0.16 0.08 0.08 0.07 0.02 0.04 0.04 0.00 0.00 0.01 0.00 0.00 0.01 0.01 0.03 0.03 0.06 -0.01 -0.00 -0.00 0.10 0.24 0.24 0.06 0.04 0.00 0.00 0.00 0.00 0.00 0.00 0.00 0.01 0.00 0.02 0.02 0.01 0.02 0.00 0.00 0.00 0.00 0.00 0.00 0.00 0.00 0.00 0.00 0.00
0.00 0.00 0.00 0.00 0.00 0.00 0.00 -0.00 -0.00 -0.00 -0.00 -0.05 -0.08 -0.08 -0.08 -0.04 -0.04 -0.03 -0.03 -0.08 -0.08 -0.15 -0.22 -0.33 -0.36 -0.36 -0.41 -0.42 -0.34 -0.34 -0.43 -0.45 -0.32 -0.32 -0.05 0.01 0.01 0.05 0.07 0.14 0.14 0.18 0.13 0.05 0.31 0.31 0.67 0.78 0.52 0.52 0.26 0.17 0.15 0.15 0.11 0.11 0.11 0.07 0.05 0.01 0.01 0.01 0.03 0.02 0.01 0.01 0.02 0.03 0.06 0.06 0.04 0.04 0.01 0.01 0.17 0.24 0.24 0.24 0.14 0.04 0.04 0.00 0.00 0.00 0.00 0.00 0.01 0.01 0.03 0.03 0.02 0.03 0.01 0.01 0.00 0.00 0.00 0.00 0.00 0.00 0.00 0.00 0.00
0.00 0.00 0.00 0.00 0.00 0.00 0.00 0.00 -0.00 -0.00 -0.00 -0.06 -0.09 -0.09 -0.08 -0.05 -0.05 -0.05 -0.09 -0.12 -0.12 -0.26 -0.36 -0.29 -0.30 -0.30 -0.40 -0.45 -0.30 -0.30 -0.27 -0.26 -0.24 -0.24 -0.06 -0.03 -0.03 0.01 0.06 0.09 0.09 0.15 0.07 -0.03 0.06 0.06 0.44 0.74 0.26 0.26 0.30 0.26 0.17 0.17 0.15 0.11 0.11 0.07 0.04 0.02 0.02 0.00 0.00 0.03 0.01 0.01 0.02 0.02 0.04 0.04 0.07 0.07 0.06 0.06 0.15 0.26 0.26 0.22 0.21 0.10 0.10 0.05 0.02 0.00 0.00 0.00 0.00 0.00 0.00 0.00 0.02 0.03 0.04 0.04 0.00 0.00 0.00 0.00 0.00 0.00 0.00 0.00 0.00
0.00 0.00 0.00 0.00 0.00 0.00 0.00 0.00 -0.01 -0.01 -0.00 -0.07 -0.12 -0.12 -0.08 -0.07 -0.07 -0.05 -0.13 -0.16 -0.16 -0.33 -0.27 -0.20 -0.17 -0.17 -0.34 -0.43 -0.48 -0.48 -0.36 -0.34 -0.07 -0.07 0.01 0.06 0.06 0.01 -0.00 0.05 0.05 0.09 0.08 0.03 0.07 0.07 0.20 0.27 0.15 0.15 0.15 0.22 0.24 0.24 0.17 0.15 0.15 0.12 0.06 0.05 0.05 0.01 0.00 0.00 0.05 0.05 0.04 0.02 0.02 0.02 0.04 0.13 0.11 0.11 0.21 0.39 0.39 0.22 0.21 0.19 0.19 0.08 0.06 0.03 0.00 0.00 0.00 0.00 0.00 0.00 0.00 0.02 0.06 0.06 0.04 0.00 0.00 0.00 0.00 0.00 0.00 0.00 0.00
0.00 0.00 0.00 0.00 0.00 0.00 0.00 0.00 0.00 0.00 -0.00 -0.07 -0.12 -0.12 -0.11 -0.07 -0.07 -0.10 -0.13 -0.21 -0.21 -0.32 -0.25 -0.17 -0.15 -0.15 -0.17 -0.32 -0.38 -0.38 -0.41 -0.32 -0.15 -0.15 -0.05 0.01 0.01 0.06 0.07 0.03 0.03 0.08 0.04 0.06 0.09 0.09 0.22 0.24 0.15 0.15 0.12 0.11 0.13 0.13 0.06 0.15 0.15 0.16 0.08 0.08 0.08 0.05 0.01 0.01 0.05 0.05 0.02 -0.01 0.04 0.04 0.05 0.08 0.10 0.10 0.17 0.41 0.41 0.23 0.25 0.20 0.20 0.14 0.06 0.03 0.01 0.01 0.00 0.00 0.00 0.00 0.00 0.00 0.03 0.03 0.05 0.02 0.02 0.00 0.00 0.00 0.00 0.00 0.00
0.00 0.00 0.00 0.00 0.00 0.00 0.00 0.00 -0.02 -0.02 -0.03 -0.05 -0.02 -0.02 -0.07 -0.06 -0.06 -0.07 -0.16 -0.26 -0.26 -0.35 -0.31 -0.23 -0.15 -0.15 -0.18 -0.28 -0.38 -0.38 -0.44 -0.40 -0.29 -0.29 -0.06 -0.03 -0.03 0.02 0.07 0.09 0.09 0.05 0.10 0.11 0.15 0.15 0.16 0.16 0.15 0.15 0.08 0.07 0.06 0.06 0.05 0.07 0.07 0.10 0.13 0.07 0.07 0.05 0.08 0.07 0.08 0.08 0.04 -0.03 0.06 0.06 0.03 0.10 0.06 0.06 0.15 0.26 0.26 0.42 0.20 0.21 0.21 0.15 0.12 0.04 0.02 0.02 0.00 0.00 0.00 0.00 0.00 0.00 0.00 0.00 0.04 0.02 0.02 0.00 0.00 0.00 0.00 0.00 0.00
0.00 0.00 0.00 0.00 0.00 0.00 0.00 0.00 -0.03 -0.03 -0.03 -0.04 -0.03 -0.03 -0.04 -0.06 -0.06 -0.05 -0.15 -0.29 -0.29 -0.33 -0.31 -0.21 -0.14 -0.14 -0.14 -0.26 -0.37 -0.37 -0.41 -0.37 -0.21 -0.21 -0.07 -0.04 -0.04 0.01 0.02 0.04 0.04 0.03 0.08 0.12 0.08 0.08 0.12 0.09 0.10 0.10 0.10 0.08 0.05 0.05 0.05 0.05 0.05 0.04 0.04 0.04 0.04 0.08 0.09 0.07 0.11 0.11 0.03 -0.01 0.04 0.04 0.07 0.15 0.20 0.20 0.18 0.23 0.23 0.36 0.39 0.38 0.38 0.24 0.13 0.19 0.13 0.13 0.02 0.00 0.00 0.00 0.00 0.00 0.00 0.00 0.00 0.01 0.01 0.01 0.00 0.00 0.00 0.00 0.00
0.00 0.00 0.00 0.00 0.00 0.00 0.00 0.00 0.00 0.00 -0.04 -0.09 -0.09 -0.09 -0.07 -0.09 -0.09 -0.03 -0.05 -0.26 -0.26 -0.35 -0.24 -0.06 -0.08 -0.08 -0.10 -0.14 -0.30 -0.30 -0.38 -0.33 -0.16 -0.16 -0.06 -0.04 -0.04 -0.03 0.00 0.02 0.02 0.02 0.07 0.07 0.08 0.08 0.08 0.06 0.07 0.07 0.08 0.08 0.07 0.07 0.06 0.05 0.05 0.03 0.03 0.02 0.02 0.13 0.16 0.11 0.13 0.13 0.11 -0.02 -0.05 -0.05 0.03 0.14 0.20 0.20 0.21 0.27 0.27 0.26 0.34 0.34 0.34 0.32 0.28 0.22 0.16 0.16 0.12 0.08 0.01 0.01 0.00 0.01 0.00 0.00 0.00 0.00 0.00 0.02 0.00 0.00 0.00 0.00 0.00
0.00 0.00 0.00 0.00 0.00 0.00 0.00 0.00 0.00 0.00 -0.05 -0.08 -0.16 -0.16 -0.23 -0.30 -0.30 -0.25 -0.11 -0.20 -0.20 -0.26 -0.09 -0.03 -0.02 -0.02 -0.04 -0.06 -0.24 -0.24 -0.31 -0.25 -0.11 -0.11 -0.06 -0.04 -0.04 -0.04 -0.01 0.00 0.00 0.01 0.03 0.05 0.06 0.06 0.05 0.05 0.06 0.06 0.06 0.07 0.08 0.08 0.06 0.05 0.05 0.04 0.02 0.02 0.02 0.01 0.16 0.19 0.25 0.25 0.18 0.13 0.00 0.00 0.06 0.16 0.20 0.20 0.23 0.21 0.21 0.23 0.29 0.28 0.28 0.27 0.25 0.23 0.17 0.17 0.11 0.07 0.06 0.06 0.03 0.03 0.01 0.01 0.00 0.00 0.00 0.00 0.03 0.00 0.00 0.00 0.00
0.00 0.00 0.00 0.00 0.00 0.00 0.00 0.00 0.00 0.00 -0.01 -0.02 -0.14 -0.14 -0.22 -0.31 -0.31 -0.32 -0.19 -0.19 -0.19 -0.23 -0.04 -0.02 -0.01 -0.01 -0.01 -0.04 -0.12 -0.12 -0.21 -0.22 -0.09 -0.09 -0.05 -0.04 -0.04 -0.04 -0.03 -0.00 -0.00 0.00 0.02 0.03 0.05 0.05 0.05 0.05 0.05 0.05 0.05 0.05 0.06 0.06 0.04 0.05 0.05 0.04 0.03 0.08 0.08 0.07 0.12 0.22 0.27 0.27 0.23 0.11 0.08 0.08 0.21 0.15 0.21 0.21 0.27 0.17 0.17 0.18 0.25 0.29 0.29 0.27 0.26 0.24 0.19 0.19 0.15 0.12 0.09 0.09 0.06 0.04 0.03 0.03 0.01 0.00 0.00 0.00 0.00 0.00 0.00 0.00 0.00
0.00 0.00 0.00 0.00 0.00 0.00 0.00 0.00 0.00 0.00 0.00 0.00 -0.00 -0.00 -0.07 -0.14 -0.14 -0.20 -0.07 -0.07 -0.07 -0.04 -0.02 -0.02 -0.02 -0.02 -0.02 -0.03 -0.03 -0.03 -0.05 -0.04 -0.03 -0.03 -0.02 -0.02 -0.02 -0.05 -0.04 -0.00 -0.00 0.01 0.02 0.02 0.02 0.02 0.04 0.03 0.04 0.04 0.04 0.04 0.03 0.03 0.03 0.02 0.02 0.01 0.01 0.01 0.01 -0.01 0.06 0.26 0.22 0.22 0.21 0.22 0.17 0.17 0.26 0.26 0.30 0.30 0.39 0.28 0.28 0.18 0.21 0.22 0.22 0.24 0.17 0.16 0.10 0.10 0.07 0.06 0.12 0.12 0.12 0.09 0.05 0.05 0.02 0.00 0.00 0.00 0.00 0.00 0.00 0.00 0.00
0.00 0.00 0.00 0.00 0.00 0.00 0.00 0.00 0.00 0.00 0.00 0.00 0.00 0.00 -0.00 -0.04 -0.04 -0.17 -0.10 -0.03 -0.03 -0.02 -0.01 -0.02 -0.03 -0.03 -0.03 -0.04 -0.04 -0.04 -0.04 -0.04 -0.04 -0.04 -0.03 -0.03 -0.03 -0.04 -0.03 -0.00 -0.00 0.01 0.01 0.02 0.02 0.02 0.03 0.03 0.03 0.03 0.02 0.03 0.02 0.02 0.03 0.02 0.02 0.02 0.01 0.01 0.01 -0.02 0.04 0.08 0.11 0.11 0.13 0.13 0.27 0.27 0.29 0.30 0.35 0.35 0.37 0.30 0.30 0.28 0.27 0.29 0.29 0.22 0.22 0.19 0.12 0.12 0.08 0.08 0.08 0.08 0.12 0.10 0.03 0.03 0.00 0.01 0.01 0.00 0.00 0.00 0.00 0.00 0.00
0.00 0.00 0.00 0.00 0.00 0.00 0.00 0.00 0.00 0.00 0.00 0.00 0.00 0.00 -0.00 -0.00 -0.00 -0.05 -0.10 -0.03 -0.03 -0.01 -0.00 -0.01 -0.02 -0.02 -0.03 -0.05 -0.05 -0.05 -0.04 -0.04 -0.05 -0.05 -0.05 -0.04 -0.04 -0.02 -0.01 0.00 0.00 0.01 0.01 0.01 0.03 0.03 0.04 0.04 0.03 0.03 0.02 0.02 0.01 0.01 0.01 0.01 0.01 0.01 0.01 0.01 0.01 0.01 0.03 0.03 0.04 0.04 0.09 0.13 0.27 0.27 0.30 0.25 0.30 0.30 0.31 0.37 0.37 0.33 0.31 0.31 0.31 0.26 0.24 0.24 0.15 0.15 0.13 0.10 0.12 0.12 0.11 0.09 0.04 0.04 0.01 0.01 0.01 0.00 0.00 0.00 0.00 0.00 0.00
0.00 0.00 0.00 0.00 0.00 0.00 0.00 0.00 0.00 0.00 0.00 -0.00 0.00 0.00 -0.00 -0.00 -0.00 -0.02 -0.02 -0.02 -0.02 -0.01 -0.01 -0.01 -0.02 -0.02 -0.03 -0.05 -0.05 -0.05 -0.05 -0.05 -0.05 -0.05 -0.07 -0.05 -0.05 -0.03 -0.00 0.01 0.01 0.01 0.02 0.02 0.03 0.03 0.04 0.05 0.04 0.04 0.03 0.02 0.01 0.01 0.01 0.00 0.00 0.00 -0.00 0.00 0.00 0.00 -0.00 0.01 0.06 0.06 0.12 0.15 0.18 0.18 0.28 0.25 0.24 0.24 0.27 0.35 0.35 0.39 0.34 0.33 0.33 0.26 0.30 0.30 0.15 0.15 0.14 0.15 0.13 0.13 0.14 0.12 0.06 0.06 0.02 0.03 0.03 0.00 0.00 0.00 0.00 0.00 0.00
0.00 0.00 0.00 0.00 0.00 0.00 0.00 0.00 0.00 0.00 0.00 -0.00 -0.00 -0.00 0.00 -0.00 -0.00 -0.00 -0.04 -0.02 -0.02 -0.01 -0.01 -0.01 -0.01 -0.01 -0.02 -0.04 -0.06 -0.06 -0.07 -0.05 -0.05 -0.05 -0.07 -0.08 -0.08 -0.04 -0.02 0.00 0.00 0.01 0.03 0.03 0.04 0.04 0.06 0.06 0.05 0.05 0.04 0.03 0.02 0.02 0.00 -0.01 -0.01 -0.00 0.01 0.00 0.00 0.00 0.02 0.03 0.03 0.03 0.04 0.12 0.18 0.18 0.22 0.29 0.24 0.24 0.23 0.32 0.32 0.41 0.35 0.35 0.35 0.33 0.36 0.27 0.24 0.24 0.15 0.17 0.18 0.18 0.14 0.13 0.10 0.10 0.05 0.06 0.06 0.05 0.01 0.00 0.00 0.00 0.00
0.00 0.00 0.00 0.00 0.00 0.00 0.00 0.00 0.00 0.00 0.00 -0.00 0.00 0.00 0.00 -0.00 -0.00 -0.00 -0.03 -0.03 -0.03 -0.01 -0.01 -0.01 -0.01 -0.01 -0.02 -0.03 -0.07 -0.07 -0.07 -0.07 -0.06 -0.06 -0.07 -0.09 -0.09 -0.05 -0.03 -0.01 -0.01 0.00 0.01 0.03 0.04 0.04 0.06 0.08 0.08 0.08 0.05 0.04 0.04 0.04 0.02 0.00 0.00 0.00 0.01 0.01 0.01 0.00 -0.01 0.01 0.06 0.06 0.02 0.00 0.22 0.22 0.29 0.29 0.25 0.25 0.29 0.30 0.30 0.38 0.31 0.39 0.39 0.38 0.35 0.30 0.22 0.22 0.23 0.24 0.22 0.22 0.22 0.18 0.10 0.10 0.13 0.08 0.08 0.07 0.05 0.00 0.00 0.00 0.00
0.00 0.00 0.00 0.00 0.00 0.00 0.00 0.00 0.00 0.00 0.00 0.00 0.00 0.00 0.00 -0.00 -0.00 -0.00 -0.01 -0.04 -0.04 -0.02 -0.02 -0.01 -0.01 -0.01 -0.02 -0.03 -0.06 -0.06 -0.07 -0.08 -0.07 -0.07 -0.08 -0.11 -0.11 -0.05 -0.02 -0.01 -0.01 -0.01 0.00 0.02 0.03 0.03 0.04 0.05 0.07 0.07 0.06 0.06 0.06 0.06 0.04 0.03 0.03 0.02 0.02 0.01 0.01 0.00 0.01 0.02 0.08 0.08 0.09 0.04 0.22 0.22 0.28 0.34 0.27 0.27 0.30 0.31 0.31 0.27 0.23 0.33 0.33 0.36 0.34 0.33 0.27 0.27 0.26 0.24 0.20 0.20 0.22 0.19 0.12 0.12 0.13 0.12 0.12 0.07 0.05 0.03 0.03 0.00 0.00
0.00 0.00 0.00 0.00 0.00 0.00 0.00 0.00 0.00 0.00 0.00 0.00 0.00 0.00 -0.00 -0.00 -0.00 -0.00 -0.00 -0.05 -0.05 -0.02 -0.01 -0.03 -0.01 -0.01 -0.02 -0.03 -0.04 -0.04 -0.07 -0.08 -0.06 -0.06 -0.09 -0.13 -0.13 -0.05 -0.03 -0.01 -0.01 -0.01 -0.00 0.00 0.02 0.02 0.01 0.02 0.04 0.04 0.05 0.05 -0.02 -0.02 0.03 0.06 0.06 0.04 0.05 0.08 0.08 0.09 0.03 0.08 0.14 0.14 0.15 0.06 0.12 0.12 0.29 0.32 0.34 0.34 0.29 0.31 0.31 0.27 0.29 0.28 0.28 0.32 0.33 0.34 0.32 0.32 0.27 0.23 0.23 0.23 0.20 0.17 0.16 0.16 0.11 0.09 0.09 0.10 0.04 0.03 0.03 0.02 0.00
0.00 0.00 0.00 0.00 0.00 0.00 0.00 0.00 0.00 0.00 0.00 0.00 -0.00 -0.00 -0.00 -0.00 -0.00 -0.00 -0.00 -0.02 -0.02 -0.03 -0.01 -0.04 -0.02 -0.02 -0.02 -0.03 -0.04 -0.04 -0.07 -0.08 -0.07 -0.07 -0.05 -0.12 -0.12 -0.14 -0.06 -0.01 -0.01 -0.01 -0.01 0.00 -0.00 -0.00 -0.01 -0.02 0.01 0.01 0.03 0.03 -0.06 -0.06 0.03 0.06 0.06 0.06 0.04 0.11 0.11 0.13 0.14 0.19 0.20 0.20 0.18 0.11 0.07 0.07 0.13 0.27 0.31 0.31 0.38 0.33 0.33 0.26 0.32 0.29 0.29 0.30 0.35 0.35 0.31 0.31 0.27 0.19 0.19 0.19 0.17 0.15 0.15 0.15 0.14 0.07 0.07 0.09 0.08 0.03 0.03 0.03 0.01
0.00 0.00 0.00 0.00 0.00 0.00 0.00 0.00 0.00 0.00 0.00 0.00 -0.00 -0.00 -0.00 -0.00 -0.00 -0.00 -0.00 -0.00 -0.00 -0.01 -0.01 -0.02 -0.03 -0.03 -0.02 -0.04 -0.05 -0.05 -0.06 -0.07 -0.06 -0.06 -0.04 -0.09 -0.09 -0.13 -0.08 -0.05 -0.05 -0.03 -0.02 -0.01 -0.01 -0.01 -0.02 -0.02 -0.01 -0.01 0.02 -0.05 -0.01 -0.01 0.06 0.03 0.03 0.03 0.01 0.02 0.02 0.12 0.14 0.19 0.26 0.26 0.24 0.22 0.10 0.10 0.08 0.16 0.33 0.33 0.37 0.40 0.40 0.37 0.40 0.43 0.43 0.34 0.31 0.37 0.36 0.36 0.27 0.28 0.18 0.18 0.17 0.16 0.14 0.14 0.11 0.10 0.10 0.09 0.09 0.04 0.04 0.03 0.02
0.00 0.00 0.00 0.00 0.00 0.00 0.00 0.00 0.00 0.00 0.00 0.00 -0.00 -0.00 -0.00 -0.00 -0.00 -0.00 -0.00 -0.00 -0.00 -0.03 -0.03 -0.02 -0.02 -0.02 -0.02 -0.04 -0.06 -0.06 -0.06 -0.07 -0.06 -0.06 -0.05 -0.07 -0.07 -0.11 -0.12 -0.06 -0.06 -0.04 -0.05 -0.03 -0.04 -0.04 -0.03 -0.03 -0.03 -0.03 -0.01 -0.11 0.04 0.04 0.12 0.07 0.07 0.01 0.05 0.04 0.04 0.08 0.15 0.13 0.20 0.20 0.23 0.22 0.15 0.15 0.09 0.12 0.33 0.33 0.36 0.39 0.39 0.43 0.45 0.49 0.49 0.44 0.40 0.44 0.41 0.41 0.37 0.36 0.28 0.28 0.20 0.19 0.19 0.19 0.11 0.14 0.14 0.12 0.08 0.07 0.07 0.03 0.03
0.00 0.00 0.00 0.00 0.00 0.00 0.00 0.00 0.00 0.00 0.00 0.00 0.00 0.00 -0.00 -0.00 -0.00 -0.00 0.00 0.00 0.00 -0.01 -0.07 -0.04 -0.02 -0.02 -0.02 -0.03 -0.05 -0.05 -0.06 -0.07 -0.06 -0.06 -0.05 -0.06 -0.06 -0.10 -0.16 -0.09 -0.09 -0.04 -0.03 -0.05 -0.05 -0.05 -0.04 -0.04 -0.06 -0.06 -0.09 -0.13 0.01 0.01 0.12 0.05 0.05 0.06 0.01 0.03 0.03 0.03 0.13 0.13 0.13 0.13 0.15 0.19 0.16 0.16 0.13 0.15 0.23 0.23 0.38 0.42 0.42 0.44 0.46 0.44 0.44 0.50 0.50 0.49 0.47 0.47 0.40 0.33 0.34 0.34 0.32 0.29 0.23 0.23 0.20 0.15 0.15 0.13 0.11 0.09 0.09 0.07 0.07
0.00 0.00 0.00 0.00 0.00 0.00 0.00 0.00 0.00 0.00 0.00 0.00 0.00 0.00 -0.00 -0.00 -0.00 -0.00 0.00 -0.00 -0.00 -0.00 -0.02 -0.07 -0.02 -0.02 -0.02 -0.03 -0.04 -0.04 -0.05 -0.06 -0.06 -0.06 -0.05 -0.04 -0.04 -0.10 -0.17 -0.15 -0.15 -0.08 -0.03 -0.04 -0.05 -0.05 -0.05 -0.06 -0.09 -0.09 -0.23 -0.09 0.00 0.00 0.08 0.06 0.06 0.06 0.01 0.01 0.01 0.01 0.05 0.12 0.13 0.13 0.10 0.17 0.21 0.21 0.21 0.18 0.21 0.21 0.25 0.35 0.35 0.45 0.47 0.47 0.47 0.53 0.63 0.56 0.51 0.51 0.50 0.47 0.39 0.39 0.39 0.50 0.33 0.33 0.26 0.19 0.19 0.15 0.13 0.12 0.12 0.07 0.07
0.00 0.00 0.00 0.00 0.00 0.00 0.00 0.00 0.00 0.00 0.00 0.00 0.00 0.00 -0.00 -0.00 -0.00 -0.00 0.00 -0.00 -0.00 -0.00 -0.00 -0.01 -0.04 -0.04 -0.03 -0.04 -0.03 -0.03 -0.05 -0.07 -0.07 -0.07 -0.06 -0.05 -0.05 -0.14 -0.18 -0.19 -0.19 -0.11 -0.04 -0.06 -0.07 -0.07 -0.08 -0.19 -0.35 -0.35 -0.33 -0.06 -0.04 -0.04 -0.01 0.05 0.05 0.03 0.02 0.00 0.00 0.05 0.07 0.09 0.14 0.14 0.14 0.16 0.10 0.10 0.17 0.20 0.25 0.25 0.22 0.22 0.22 0.40 0.48 0.49 0.49 0.62 0.76 0.76 0.60 0.60 0.58 0.64 0.54 0.54 0.52 0.56 0.48 0.48 0.28 0.26 0.26 0.19 0.13 0.17 0.17 0.14 0.09
0.00 0.00 0.00 0.00 0.00 0.00 0.00 0.00 0.00 0.00 0.00 0.00 -0.00 -0.00 -0.00 -0.01 -0.01 -0.01 -0.00 -0.00 -0.00 -0.00 0.00 -0.00 -0.01 -0.01 -0.03 -0.06 -0.07 -0.07 -0.07 -0.07 -0.08 -0.08 -0.08 -0.23 -0.23 -0.15 -0.17 -0.18 -0.18 -0.14 -0.09 -0.10 -0.14 -0.14 -0.28 -0.33 -0.41 -0.41 -0.15 -0.15 -0.06 -0.06 0.05 0.03 0.03 0.06 0.05 0.02 0.02 0.01 0.03 0.06 0.12 0.12 0.12 0.09 0.05 0.05 0.07 0.14 0.23 0.23 0.23 0.23 0.23 0.33 0.41 0.50 0.50 0.61 0.83 0.86 0.83 0.83 0.64 0.68 0.68 0.68 0.62 0.57 0.50 0.50 0.43 0.32 0.32 0.27 0.20 0.23 0.23 0.18 0.13
0.00 0.00 0.00 0.00 0.00 0.00 0.00 0.00 0.00 0.00 0.00 0.00 -0.00 -0.00 -0.00 -0.01 -0.01 -0.01 -0.01 -0.00 -0.00 -0.00 0.00 0.00 -0.00 -0.00 -0.02 -0.06 -0.09 -0.09 -0.08 -0.10 -0.14 -0.14 -0.20 -0.27 -0.27 -0.26 -0.15 -0.17 -0.17 -0.17 -0.14 -0.27 -0.33 -0.33 -0.40 -0.45 -0.40 -0.40 -0.12 -0.20 -0.18 -0.18 -0.00 0.00 0.00 -0.01 0.02 0.02 0.02 0.02 0.01 0.03 0.06 0.06 0.12 0.08 0.06 0.06 0.07 0.11 0.10 0.10 0.24 0.23 0.23 0.22 0.29 0.41 0.41 0.64 0.73 0.82 0.80 0.80 0.79 0.68 0.67 0.67 0.66 0.57 0.52 0.52 0.46 0.45 0.45 0.31 0.26 0.26 0.26 0.19 0.13
0.00 0.00 0.00 0.00 0.00 0.00 0.00 0.00 0.00 0.00 0.00 0.00 0.00 0.00 -0.00 -0.01 -0.01 -0.02 -0.02 -0.01 -0.01 -0.01 -0.00 0.00 -0.00 -0.00 -0.00 -0.04 -0.10 -0.10 -0.11 -0.16 -0.22 -0.22 -0.21 -0.22 -0.22 -0.25 -0.18 -0.19 -0.19 -0.18 -0.22 -0.69 -0.66 -0.66 -0.69 -0.61 -0.39 -0.39 -0.21 -0.21 -0.17 -0.17 -0.01 -0.01 -0.01 0.01 0.04 0.00 0.00 -0.01 -0.02 -0.02 0.01 0.01 0.04 0.02 0.03 0.03 -0.00 0.06 0.06 0.06 0.15 0.23 0.23 0.23 0.23 0.36 0.36 0.54 0.52 0.72 0.71 0.71 0.71 0.71 0.71 0.71 0.66 0.66 0.57 0.57 0.52 0.47 0.47 0.40 0.27 0.25 0.25 0.26 0.17
0.00 0.00 0.00 0.00 0.00 0.00 0.00 0.00 0.00 0.00 0.00 0.00 0.00 0.00 -0.00 -0.02 -0.02 -0.02 -0.02 -0.02 -0.02 -0.02 -0.01 -0.00 -0.00 -0.00 -0.00 -0.04 -0.07 -0.07 -0.10 -0.18 -0.24 -0.24 -0.24 -0.22 -0.22 -0.28 -0.31 -0.25 -0.25 -0.30 -0.49 -0.95 -0.86 -0.86 -0.85 -0.65 -0.51 -0.51 -0.57 -0.32 -0.21 -0.21 -0.13 0.01 0.01 0.01 0.04 0.03 0.03 0.01 0.04 -0.01 -0.01 -0.01 0.01 -0.00 0.01 0.01 -0.01 -0.01 0.04 0.04 0.06 0.13 0.13 0.22 0.25 0.27 0.27 0.44 0.46 0.53 0.68 0.68 0.68 0.67 0.71 0.71 0.69 0.66 0.62 0.62 0.53 0.51 0.51 0.45 0.39 0.31 0.31 0.26 0.26
0.00 0.00 0.00 0.00 0.00 0.00 0.00 0.00 0.00 0.00 0.00 0.00 -0.00 -0.00 -0.00 -0.01 -0.01 -0.03 -0.02 -0.03 -0.03 -0.02 -0.02 -0.01 -0.01 -0.01 -0.01 -0.03 -0.05 -0.05 -0.08 -0.15 -0.20 -0.20 -0.23 -0.32 -0.32 -0.39 -0.36 -0.33 -0.33 -0.54 -0.85 -1.11 -1.23 -1.23 -1.19 -0.76 -0.61 -0.61 -0.87 -0.49 -0.26 -0.26 -0.17 -0.09 -0.09 -0.02 0.01 0.07 0.07 0.08 0.10 0.04 -0.01 -0.01 -0.02 -0.02 -0.05 -0.05 -0.07 -0.02 0.01 0.01 0.01 0.06 0.06 0.14 0.24 0.33 0.33 0.36 0.44 0.49 0.55 0.55 0.66 0.65 0.69 0.69 0.73 0.71 0.66 0.66 0.58 0.53 0.53 0.47 0.40 0.36 0.36 0.31 0.28
0.00 0.00 0.00 0.00 0.00 0.00 0.00 0.00 0.00 0.00 0.00 0.00 -0.00 -0.00 -0.00 -0.01 -0.01 -0.03 -0.02 -0.02 -0.02 -0.02 -0.03 -0.03 -0.03 -0.03 -0.02 -0.03 -0.04 -0.04 -0.06 -0.11 -0.17 -0.17 -0.15 -0.23 -0.23 -0.40 -0.37 -0.39 -0.39 -0.69 -0.85 -0.98 -1.46 -1.46 -1.45 -1.19 -0.94 -0.94 -1.13 -0.92 -0.39 -0.39 -0.19 -0.23 -0.23 -0.04 0.00 0.07 0.07 0.12 0.14 0.11 0.05 0.05 0.01 0.00 -0.03 -0.03 -0.10 -0.08 -0.11 -0.11 -0.05 0.01 0.01 0.11 0.13 0.31 0.31 0.38 0.36 0.53 0.60 0.60 0.66 0.67 0.69 0.69 0.69 0.70 0.74 0.74 0.66 0.67 0.67 0.59 0.44 0.39 0.39 0.35 0.30
0.00 0.00 0.00 0.00 0.00 0.00 0.00 0.00 0.00 0.00 0.00 0.00 -0.00 -0.00 -0.00 -0.02 -0.02 -0.03 -0.03 -0.00 -0.00 -0.00 -0.02 -0.04 -0.07 -0.07 -0.08 -0.07 -0.04 -0.04 -0.05 -0.07 -0.11 -0.11 -0.09 -0.18 -0.18 -0.34 -0.36 -0.46 -0.46 -0.73 -1.04 -1.22 -1.53 -1.53 -1.48 -1.45 -1.49 -1.49 -1.37 -1.16 -0.87 -0.87 -0.39 -0.50 -0.50 -0.23 -0.04 0.01 0.01 0.06 0.10 0.13 0.09 0.09 0.01 0.03 0.04 0.04 -0.04 -0.12 -0.11 -0.11 -0.13 -0.07 -0.07 0.01 0.01 0.27 0.27 0.35 0.27 0.33 0.59 0.59 0.61 0.69 0.69 0.69 0.69 0.69 0.70 0.70 0.72 0.71 0.71 0.64 0.54 0.45 0.45 0.37 0.34
0.00 0.00 0.00 0.00 0.00 0.00 0.00 0.00 0.00 0.00 0.00 0.00 0.00 0.00 -0.01 -0.02 -0.02 -0.03 -0.04 -0.00 -0.00 -0.00 -0.00 -0.02 -0.06 -0.06 -0.08 -0.07 -0.07 -0.07 -0.06 -0.07 -0.09 -0.09 -0.09 -0.12 -0.12 -0.20 -0.38 -0.41 -0.41 -0.60 -0.98 -1.19 -1.25 -1.25 -1.51 -1.63 -1.49 -1.49 -1.53 -1.35 -1.12 -1.12 -0.75 -0.71 -0.71 -0.47 -0.26 -0.07 -0.07 0.02 -0.02 0.07 0.07 0.07 0.05 0.04 0.06 0.06 0.04 -0.09 -0.06 -0.06 -0.11 -0.14 -0.14 -0.07 -0.01 0.09 0.09 0.21 0.19 0.22 0.36 0.36 0.48 0.67 0.72 0.72 0.72 0.73 0.73 0.73 0.73 0.76 0.76 0.70 0.61 0.57 0.57 0.43 0.41
0.00 0.00 0.00 0.00 0.00 0.00 0.00 0.00 0.00 0.00 0.00 0.00 0.00 0.00 -0.01 -0.02 -0.02 -0.02 -0.04 -0.00 -0.00 -0.00 -0.00 -0.00 -0.00 -0.00 -0.05 -0.08 -0.09 -0.09 -0.09 -0.09 -0.11 -0.11 -0.12 -0.12 -0.12 -0.16 -0.33 -0.41 -0.41 -0.58 -0.99 -1.13 -1.20 -1.20 -1.30 -1.43 -1.18 -1.18 -1.31 -1.45 -1.38 -1.38 -1.20 -0.75 -0.75 -0.53 -0.40 -0.18 -0.18 -0.10 -0.11 -0.03 0.03 0.03 0.05 0.03 0.04 0.04 0.03 -0.01 -0.08 -0.08 -0.09 -0.11 -0.11 -0.07 0.13 0.16 0.16 0.15 0.19 0.19 0.20 0.20 0.21 0.51 0.67 0.67 0.72 0.74 0.78 0.78 0.79 0.82 0.82 0.72 0.64 0.63 0.63 0.56 0.44
0.00 0.00 0.00 0.00 0.00 0.00 0.00 0.00 0.00 0.00 0.00 0.00 0.00 0.00 -0.00 -0.02 -0.02 -0.02 -0.03 -0.00 -0.00 -0.00 -0.00 -0.00 -0.00 -0.00 -0.00 -0.04 -0.06 -0.06 -0.10 -0.15 -0.17 -0.17 -0.18 -0.16 -0.16 -0.16 -0.17 -0.24 -0.24 -0.26 -0.36 -0.74 -0.81 -0.81 -0.92 -1.00 -1.16 -1.16 -1.15 -1.27 -1.27 -1.27 -1.04 -0.69 -0.69 -0.58 -0.55 -0.51 -0.51 -0.50 -0.42 -0.29 -0.24 -0.24 -0.16 -0.20 -0.12 -0.12 -0.09 -0.04 -0.14 -0.14 -0.17 -0.10 -0.10 0.12 0.30 0.41 0.41 0.36 0.26 0.21 0.18 0.18 0.19 0.20 0.41 0.41 0.61 0.61 0.66 0.66 0.71 0.81 0.81 0.78 0.77 0.75 0.75 0.58 0.59
0.00 0.00 0.00 0.00 0.00 0.00 0.00 0.00 0.00 0.00 0.00 0.00 0.00 0.00 -0.00 -0.01 -0.01 -0.02 -0.02 -0.00 -0.00 -0.00 -0.01 -0.01 -0.01 -0.01 -0.03 -0.04 -0.05 -0.05 -0.07 -0.15 -0.19 -0.19 -0.18 -0.18 -0.18 -0.19 -0.20 -0.21 -0.21 -0.23 -0.28 -0.41 -0.67 -0.67 -0.88 -1.05 -1.35 -1.35 -1.42 -1.52 -1.42 -1.42 -0.86 -0.75 -0.75 -0.62 -0.52 -0.52 -0.52 -0.57 -0.54 -0.45 -0.37 -0.37 -0.40 -0.27 -0.18 -0.18 -0.11 -0.17 -0.21 -0.21 -0.19 -0.13 -0.13 0.02 0.11 0.23 0.23 0.33 0.25 0.23 0.23 0.23 0.19 0.19 0.34 0.34 0.43 0.51 0.57 0.57 0.63 0.62 0.62 0.77 0.72 0.76 0.76 0.74 0.61
0.00 0.00 0.00 0.00 0.00 0.00 0.00 0.00 0.00 0.00 0.00 0.00 0.00 0.00 0.00 -0.01 -0.01 -0.02 -0.03 -0.01 -0.01 -0.00 -0.01 -0.02 -0.02 -0.02 -0.03 -0.06 -0.05 -0.05 -0.05 -0.07 -0.15 -0.15 -0.17 -0.18 -0.18 -0.18 -0.19 -0.19 -0.19 -0.21 -0.25 -0.31 -0.65 -0.65 -0.93 -1.13 -1.33 -1.33 -1.68 -1.61 -1.41 -1.41 -0.91 -0.88 -0.88 -0.72 -0.60 -0.59 -0.59 -0.64 -0.67 -0.50 -0.46 -0.46 -0.40 -0.39 -0.24 -0.24 -0.08 -0.07 -0.28 -0.28 -0.23 -0.13 -0.13 -0.13 -0.05 -0.02 -0.02 0.11 0.11 0.25 0.24 0.24 0.19 0.22 0.27 0.27 0.42 0.38 0.53 0.53 0.55 0.46 0.46 0.58 0.73 0.77 0.77 0.76 0.73
0.00 0.00 0.00 0.00 0.00 0.00 0.00 0.00 0.00 0.00 0.00 0.00 0.00 0.00 0.00 -0.01 -0.01 -0.02 -0.02 -0.06 -0.06 -0.05 -0.06 -0.03 -0.02 -0.02 -0.05 -0.05 -0.08 -0.08 -0.09 -0.11 -0.11 -0.11 -0.14 -0.17 -0.17 -0.17 -0.20 -0.20 -0.20 -0.18 -0.25 -0.24 -0.30 -0.30 -0.94 -0.93 -1.19 -1.19 -1.57 -1.56 -1.41 -1.41 -1.33 -1.00 -1.00 -0.83 -0.74 -0.66 -0.66 -0.69 -0.73 -0.59 -0.45 -0.45 -0.43 -0.42 -0.37 -0.37 -0.09 -0.08 -0.12 -0.12 -0.33 -0.26 -0.26 -0.33 -0.20 -0.11 -0.11 -0.01 0.04 0.10 0.20 0.20 0.17 0.17 0.23 0.23 0.17 0.25 0.32 0.32 0.43 0.41 0.41 0.48 0.58 0.68 0.68 0.83 0.88
0.00 0.00 0.00 0.00 0.00 0.00 0.00 0.00 0.00 0.00 0.00 0.01 0.00 0.00 0.00 -0.01 -0.01 -0.02 -0.02 -0.03 -0.03 -0.08 -0.10 -0.08 -0.04 -0.04 -0.06 -0.08 -0.12 -0.12 -0.12 -0.14 -0.10 -0.10 -0.09 -0.13 -0.13 -0.16 -0.19 -0.18 -0.18 -0.21 -0.31 -0.29 -0.35 -0.35 -0.52 -0.68 -0.85 -0.85 -1.14 -1.34 -1.33 -1.33 -1.23 -1.17 -1.17 -0.83 -0.77 -0.73 -0.73 -0.75 -0.73 -0.62 -0.49 -0.49 -0.45 -0.38 -0.32 -0.32 -0.11 -0.13 -0.14 -0.14 -0.18 -0.32 -0.32 -0.15 -0.19 -0.14 -0.14 -0.06 -0.07 0.06 0.11 0.11 0.11 0.20 0.25 0.25 0.16 0.15 0.20 0.20 0.31 0.27 0.27 0.35 0.47 0.54 0.54 0.72 0.95
0.00 0.00 0.00 0.00 0.00 0.00 0.00 0.00 0.00 0.00 0.00 0.01 0.00 0.00 0.00 -0.00 -0.00 -0.01 -0.02 -0.02 -0.02 -0.07 -0.08 -0.11 -0.07 -0.07 -0.08 -0.11 -0.14 -0.14 -0.16 -0.16 -0.10 -0.10 -0.05 -0.07 -0.07 -0.12 -0.18 -0.26 -0.26 -0.31 -0.35 -0.40 -0.37 -0.37 -0.41 -0.66 -0.74 -0.74 -0.89 -1.09 -1.21 -1.21 -1.02 -1.06 -1.06 -0.85 -0.77 -0.70 -0.70 -0.78 -0.71 -0.64 -0.54 -0.54 -0.40 -0.30 -0.26 -0.26 -0.26 -0.12 -0.09 -0.09 -0.10 -0.09 -0.09 0.01 0.03 -0.01 -0.01 -0.02 -0.01 -0.11 -0.06 -0.06 -0.04 0.10 0.14 0.14 0.19 0.27 0.20 0.20 0.24 0.36 0.36 0.32 0.40 0.64 0.64 0.83 0.91
0.00 0.00 0.00 0.00 0.00 0.00 0.00 0.00 0.00 0.00 0.00 0.00 0.00 0.00 0.00 0.00 0.00 -0.01 -0.00 -0.01 -0.01 -0.04 -0.09 -0.11 -0.11 -0.11 -0.12 -0.15 -0.17 -0.17 -0.19 -0.16 -0.10 -0.10 -0.03 -0.05 -0.05 -0.07 -0.11 -0.24 -0.24 -0.36 -0.39 -0.40 -0.35 -0.35 -0.35 -0.51 -0.78 -0.78 -0.88 -1.05 -1.00 -1.00 -0.88 -0.88 -0.88 -0.84 -0.72 -0.76 -0.76 -0.66 -0.63 -0.62 -0.46 -0.46 -0.33 -0.19 -0.13 -0.13 -0.14 -0.01 -0.06 -0.06 -0.06 -0.07 -0.07 -0.14 0.15 0.23 0.23 0.25 0.22 0.10 0.02 0.02 0.16 0.09 0.07 0.07 0.17 0.26 0.33 0.33 0.37 0.54 0.54 0.56 0.49 0.76 0.76 0.88 1.01
0.00 0.00 0.00 0.00 0.00 0.00 0.00 0.00 0.00 0.00 0.00 0.00 0.00 0.00 0.00 0.00 0.00 -0.00 -0.00 -0.01 -0.01 -0.02 -0.11 -0.13 -0.12 -0.12 -0.13 -0.15 -0.18 -0.18 -0.14 -0.13 -0.12 -0.12 -0.12 -0.04 -0.04 -0.05 -0.07 -0.11 -0.11 -0.27 -0.39 -0.44 -0.34 -0.34 -0.38 -0.57 -0.71 -0.71 -0.95 -1.03 -1.01 -1.01 -0.85 -0.76 -0.76 -0.63 -0.59 -0.67 -0.67 -0.51 -0.51 -0.53 -0.39 -0.39 -0.24 -0.23 -0.05 -0.05 -0.01 0.05 0.04 0.04 -0.10 -0.15 -0.15 -0.18 -0.12 0.15 0.15 0.20 0.14 0.17 0.15 0.15 0.24 0.26 0.22 0.22 0.34 0.36 0.38 0.38 0.45 0.48 0.48 0.54 0.67 0.84 0.84 1.00 1.10
0.00 0.00 0.00 0.00 0.00 0.00 0.00 0.00 0.00 0.00 0.00 0.00 0.00 0.00 0.00 0.00 0.00 0.00 -0.00 -0.01 -0.01 -0.02 -0.06 -0.10 -0.15 -0.15 -0.13 -0.14 -0.17 -0.17 -0.13 -0.07 -0.10 -0.10 -0.13 -0.04 -0.04 -0.03 -0.05 -0.07 -0.07 -0.29 -0.35 -0.41 -0.46 -0.46 -0.48 -0.62 -0.67 -0.67 -0.88 -0.92 -0.98 -0.98 -0.85 -0.75 -0.75 -0.55 -0.42 -0.33 -0.33 -0.35 -0.37 -0.41 -0.31 -0.31 -0.19 -0.20 -0.10 -0.10 0.02 0.12 0.14 0.14 0.07 -0.13 -0.13 -0.15 -0.17 -0.13 -0.13 0.05 0.09 0.12 0.12 0.12 0.15 0.22 0.26 0.26 0.31 0.45 0.41 0.41 0.41 0.41 0.41 0.54 0.66 0.81 0.81 0.94 1.06
0.00 0.00 0.00 0.00 0.00 0.00 0.00 0.00 0.00 0.00 0.00 0.00 0.00 0.00 0.00 0.00 0.00 0.00 -0.01 -0.01 -0.01 -0.02 -0.04 -0.07 -0.14 -0.14 -0.17 -0.19 -0.18 -0.18 -0.16 -0.05 -0.08 -0.08 -0.11 -0.11 -0.11 -0.02 -0.04 -0.12 -0.12 -0.25 -0.30 -0.40 -0.47 -0.47 -0.55 -0.61 -0.56 -0.56 -0.63 -0.71 -0.80 -0.80 -0.66 -0.69 -0.69 -0.59 -0.43 -0.37 -0.37 -0.25 -0.25 -0.26 -0.29 -0.29 -0.10 -0.08 -0.01 -0.01 0.05 0.22 0.22 0.22 0.15 0.00 0.00 -0.01 -0.03 -0.04 -0.04 0.18 0.15 0.10 0.06 0.06 0.06 0.13 0.23 0.23 0.22 0.32 0.43 0.43 0.41 0.42 0.42 0.39 0.47 0.62 0.62 0.78 0.99
0.00 0.00 0.00 0.00 0.00 0.00 0.00 0.00 0.00 0.00 0.00 0.00 0.01 0.01 0.00 0.00 0.00 0.00 -0.01 -0.01 -0.01 -0.02 -0.03 -0.04 -0.10 -0.10 -0.17 -0.24 -0.22 -0.22 -0.21 -0.11 -0.06 -0.06 -0.09 -0.09 -0.09 -0.09 -0.13 -0.17 -0.17 -0.17 -0.22 -0.40 -0.40 -0.40 -0.31 -0.48 -0.50 -0.50 -0.52 -0.56 -0.52 -0.52 -0.52 -0.56 -0.56 -0.50 -0.41 -0.34 -0.34 -0.30 -0.22 -0.16 -0.13 -0.13 -0.08 -0.02 0.10 0.10 0.18 0.27 0.25 0.25 0.23 0.11 0.11 0.19 0.16 0.16 0.16 0.33 0.33 0.15 0.09 0.09 0.12 0.09 0.16 0.16 0.29 0.36 0.42 0.42 0.45 0.47 0.47 0.42 0.42 0.55 0.55 0.68 0.87
0.00 0.00 0.00 0.00 0.00 0.00 0.00 0.00 0.00 0.00 0.00 0.00 0.01 0.01 0.00 0.00 0.00 0.00 -0.01 -0.02 -0.02 -0.02 -0.03 -0.04 -0.07 -0.07 -0.12 -0.19 -0.20 -0.20 -0.22 -0.15 -0.08 -0.08 -0.09 -0.09 -0.09 -0.12 -0.08 -0.06 -0.06 -0.10 -0.10 -0.32 -0.35 -0.35 -0.21 -0.20 -0.44 -0.44 -0.45 -0.53 -0.61 -0.61 -0.52 -0.53 -0.53 -0.50 -0.39 -0.41 -0.41 -0.35 -0.31 -0.13 -0.11 -0.11 -0.17 -0.15 0.18 0.18 0.25 0.32 0.31 0.31 0.22 0.20 0.20 0.30 0.34 0.33 0.33 0.34 0.29 0.26 0.18 0.18 0.22 0.20 0.20 0.20 0.33 0.48 0.48 0.48 0.46 0.47 0.47 0.58 0.54 0.62 0.62 0.64 0.72
0.00 0.00 0.00 0.00 0.00 0.00 0.00 0.00 0.00 0.00 0.00 0.00 0.01 0.01 0.00 0.00 0.00 -0.00 -0.01 -0.01 -0.01 -0.02 -0.03 -0.04 -0.06 -0.06 -0.07 -0.12 -0.13 -0.13 -0.17 -0.17 -0.14 -0.14 -0.06 -0.05 -0.05 -0.10 -0.07 -0.02 -0.02 -0.06 -0.09 -0.28 -0.28 -0.28 -0.10 -0.12 -0.42 -0.42 -0.47 -0.58 -0.91 -0.91 -0.71 -0.62 -0.62 -0.54 -0.50 -0.47 -0.47 -0.44 -0.41 -0.35 -0.31 -0.31 -0.27 -0.23 -0.15 -0.15 0.28 0.26 0.25 0.25 0.24 0.23 0.23 0.30 0.32 0.34 0.34 0.24 0.23 0.23 0.23 0.23 0.29 0.28 0.30 0.30 0.38 0.43 0.46 0.46 0.35 0.38 0.38 0.48 0.63 0.61 0.61 0.66 0.70
0.00 0.00 0.00 0.00 0.00 0.00 0.00 0.00 0.00 0.00 0.00 0.01 0.01 0.01 0.01 0.00 0.00 0.00 -0.00 -0.01 -0.01 -0.02 -0.03 -0.04 -0.05 -0.05 -0.04 -0.07 -0.04 -0.04 -0.13 -0.18 -0.17 -0.17 -0.05 -0.03 -0.03 -0.06 -0.02 0.06 0.06 -0.03 -0.09 -0.15 -0.11 -0.11 -0.07 -0.12 -0.34 -0.34 -0.41 -0.59 -0.89 -0.89 -0.96 -0.77 -0.77 -0.73 -0.63 -0.70 -0.70 -0.55 -0.47 -0.42 -0.36 -0.36 -0.29 -0.28 -0.20 -0.20 -0.03 0.20 0.28 0.28 0.27 0.26 0.26 0.25 0.24 0.23 0.23 0.31 0.25 0.27 0.28 0.28 0.29 0.31 0.35 0.35 0.39 0.40 0.38 0.38 0.30 0.31 0.31 0.34 0.40 0.37 0.37 0.58 0.69
0.00 0.00 0.00 0.00 0.00 0.00 0.00 0.00 0.00 0.00 0.00 0.00 0.01 0.01 0.00 0.00 0.00 0.00 0.00 -0.01 -0.01 -0.02 -0.03 -0.03 -0.04 -0.04 -0.03 -0.01 -0.00 -0.00 -0.07 -0.15 -0.18 -0.18 -0.11 -0.03 -0.03 -0.03 -0.04 -0.00 -0.00 0.05 -0.00 -0.04 -0.02 -0.02 -0.06 -0.18 -0.41 -0.41 -0.46 -0.38 -0.58 -0.58 -0.74 -0.82 -0.82 -0.89 -0.77 -0.75 -0.75 -0.67 -0.53 -0.46 -0.35 -0.35 -0.26 -0.21 -0.17 -0.17 -0.08 -0.00 0.22 0.22 0.24 0.20 0.20 0.22 0.20 0.29 0.29 0.44 0.39 0.35 0.34 0.34 0.36 0.36 0.38 0.38 0.45 0.41 0.37 0.37 0.33 0.29 0.29 0.30 0.32 0.29 0.29 0.32 0.52
0.00 0.00 0.00 0.00 0.00 0.00 0.00 0.00 0.01 0.01 0.01 0.01 0.00 0.00 0.00 0.01 0.01 0.01 0.00 -0.00 -0.00 -0.02 -0.02 -0.02 -0.03 -0.03 -0.03 -0.01 0.01 0.01 0.01 -0.09 -0.15 -0.15 -0.12 -0.06 -0.06 -0.03 -0.05 -0.04 -0.04 0.00 0.03 -0.01 -0.00 -0.00 -0.05 -0.19 -0.34 -0.34 -0.40 -0.31 -0.43 -0.43 -0.57 -0.68 -0.68 -0.82 -0.84 -0.68 -0.68 -0.65 -0.52 -0.43 -0.33 -0.33 -0.24 -0.16 -0.13 -0.13 -0.10 -0.02 0.07 0.07 0.15 0.11 0.11 0.17 0.18 0.44 0.44 0.44 0.42 0.38 0.34 0.34 0.38 0.44 0.49 0.49 0.56 0.44 0.40 0.40 0.35 0.32 0.32 0.29 0.27 0.28 0.28 0.27 0.30
0.00 0.00 0.00 0.00 0.00 0.00 0.00 0.00 0.01 0.01 0.01 0.01 0.01 0.01 0.01 0.01 0.01 0.01 0.00 -0.00 -0.00 -0.01 -0.02 -0.03 -0.03 -0.03 -0.03 -0.01 0.02 0.02 0.03 -0.02 -0.09 -0.09 -0.12 -0.08 -0.08 -0.03 -0.03 -0.04 -0.04 -0.05 0.01 -0.00 -0.00 -0.00 0.02 -0.14 -0.22 -0.22 -0.31 -0.38 -0.38 -0.38 -0.46 -0.60 -0.60 -0.63 -0.50 -0.55 -0.55 -0.60 -0.59 -0.43 -0.33 -0.33 -0.26 -0.20 -0.13 -0.13 -0.15 -0.10 0.03 0.03 0.09 0.07 0.07 0.10 0.17 0.31 0.31 0.37 0.38 0.38 0.35 0.35 0.38 0.47 0.55 0.55 0.60 0.58 0.52 0.52 0.40 0.33 0.33 0.27 0.27 0.34 0.34 0.32 0.28
0.00 0.00 0.00 0.00 0.00 0.00 0.00 0.00 0.01 0.01 0.01 0.01 0.01 0.01 0.01 0.01 0.01 0.01 0.00 0.00 0.00 -0.00 -0.02 -0.04 -0.03 -0.03 -0.02 0.01 0.05 0.05 0.05 0.03 -0.02 -0.02 -0.06 -0.08 -0.08 -0.04 -0.04 -0.03 -0.03 -0.04 -0.03 0.00 0.02 0.02 0.04 0.03 -0.09 -0.09 -0.20 -0.17 -0.34 -0.34 -0.37 -0.44 -0.44 -0.49 -0.41 -0.42 -0.42 -0.49 -0.54 -0.49 -0.31 -0.31 -0.26 -0.20 -0.18 -0.18 -0.18 -0.13 -0.05 -0.05 0.06 -0.01 -0.01 0.04 0.08 0.21 0.21 0.17 0.23 0.28 0.31 0.31 0.47 0.50 0.58 0.58 0.59 0.58 0.55 0.55 0.47 0.34 0.34 0.30 0.32 0.37 0.37 0.36 0.38
0.00 0.00 0.00 0.00 0.00 0.00 0.00 0.00 0.01 0.01 0.01 0.01 0.01 0.01 0.01 0.01 0.01 0.01 0.00 0.00 0.00 -0.01 -0.02 -0.03 -0.04 -0.04 -0.03 0.02 0.04 0.04 0.06 0.04 0.01 0.01 0.02 -0.02 -0.02 -0.01 -0.04 -0.01 -0.01 -0.01 -0.00 -0.02 0.00 0.00 0.02 0.00 -0.02 -0.02 -0.05 -0.05 -0.18 -0.18 -0.32 -0.34 -0.34 -0.38 -0.35 -0.34 -0.34 -0.39 -0.44 -0.44 -0.35 -0.35 -0.26 -0.22 -0.19 -0.19 -0.15 -0.13 -0.08 -0.08 -0.02 0.06 0.06 0.09 0.07 0.09 0.09 0.27 0.37 0.40 0.45 0.45 0.49 0.52 0.53 0.53 0.53 0.51 0.51 0.51 0.44 0.44 0.44 0.45 0.42 0.48 0.48 0.44 0.45